Location: Piotrkow Trybunalski
(51.4000°N, 19.6830°E)
Time: 09:06:14
(UTC+01:00)

BlueWalker 3 - Pass Details

Date: 03 December 2022
Orbit: 499 x 517 km, 53.2° (Epoch: 29 January)

Event Time Altitude Azimuth Distance (km) Brightness Sun altitude
Rises 16:37:36 0° 266° (W) 2,633 7.1 -9.3°
Reaches altitude 10° 16:39:49 10° 269° (W) 1,743 5.9 -9.6°
Maximum altitude 16:43:45 69° 353° (N) 553 2.0 -10.1°
Enters shadow 16:46:55 15° 76° (ENE) 1,438 3.6 -10.6°
